Location: Hradec Kralove
(50.2170°N, 15.8330°E)
Time: 06:43:51
(UTC+02:00)

TIGRISAT - Pass Details

Date: 05 August 2024
Orbit: 591 x 667 km, 97.7° (Epoch: 19 September)

Event Time Altitude Azimuth Distance (km) Brightness Sun altitude
Rises 03:25:38 0° 129° (SE) 2,952 ? -15.9°
Reaches altitude 10° 03:28:11 10° 115° (ESE) 2,033 ? -15.7°
Maximum altitude 03:31:41 24° 63° (ENE) 1,333 ? -15.3°
Drops below altitude 10° 03:35:09 10° 10° (N) 2,005 ? -15.0°
Sets 03:37:39 0° 357° (N) 2,902 ? -14.8°
